Theta_e
308 308 309 309 308 305 300 291 283 301 304 290 289 284 287 292 290 293 291 290 289 287 288 286 287 288 293 298 299 294 297 290 288 292 297 300 297 293 294 291 288 291 290 291
308 308 308 308 307 305 294 289 288 299 302 283 284 288 288 290 289 290 289 288 291 292 288 284 289 292 297 297 296 295 296 292 285 288 292 297 294 296 297 295 293 290 290 291
307 308 308 308 307 305 294 289 282 291 295 291 287 286 286 285 292 289 290 288 290 288 287 290 286 288 293 296 296 301 297 292 290 287 292 295 293 295 297 297 291 291 295 294
307 308 308 308 307 305 294 288 284 291 282 284 285 284 286 284 284 290 290 286 286 287 284 287 286 289 291 295 298 294 290 288 293 294 296 297 297 296 297 298 297 295 295 296
308 308 308 308 307 304 292 282 288 292 286 287 285 285 284 286 287 288 287 286 290 290 286 288 287 289 290 289 294 290 290 286 293 292 296 296 294 297 298 300 299 297 299 297
307 307 308 308 307 303 293 293 293 291 287 283 279 282 287 288 289 291 292 291 289 287 290 294 296 295 295 293 290 288 287 288 288 288 294 294 290 295 297 300 302 299 295 298
307 307 307 308 308 303 297 297 294 288 282 283 284 287 289 289 290 288 291 291 290 294 297 298 296 294 294 293 292 293 287 287 287 288 290 284 295 301 302 301 302 304 300 301
307 307 307 308 308 307 296 299 294 289 283 285 286 288 289 289 290 289 289 291 293 296 293 288 286 287 289 290 293 292 292 288 286 286 288 291 295 300 299 298 297 303 303 302
305 306 307 308 308 307 296 297 299 293 287 282 290 287 288 286 286 286 289 294 295 292 289 285 281 280 285 284 289 298 292 292 290 289 284 284 293 303 305 304 295 303 304 303
305 306 306 307 308 307 298 295 301 295 288 291 290 288 287 291 289 286 290 290 290 292 285 276 281 283 288 282 284 287 290 290 287 287 287 291 299 304 306 294 296 303 305 304
305 305 306 307 307 307 302 295 300 298 293 293 296 296 292 291 291 285 290 290 291 290 283 285 286 285 287 286 288 286 289 290 289 290 288 286 304 303 297 300 302 306 305 304
305 305 306 307 307 308 306 297 299 302 296 293 298 298 299 298 296 293 292 290 289 291 286 288 289 287 287 286 283 292 286 289 290 292 291 300 303 301 303 308 304 306 306 306
306 306 307 307 307 307 304 299 296 299 296 293 289 291 298 300 300 301 289 291 295 294 295 292 290 286 292 287 288 289 292 296 291 293 298 297 301 302 303 308 309 311 308 310
306 307 307 308 308 307 305 299 295 298 297 289 288 298 295 301 301 300 298 295 296 295 296 293 290 287 294 289 290 290 293 296 293 294 297 298 301 301 302 302 309 313 313 310
306 307 307 307 307 306 302 297 298 301 295 288 288 295 297 297 300 299 299 297 294 292 289 289 287 291 292 292 293 291 297 293 290 291 298 296 298 301 303 302 302 311 313 312
307 307 306 306 307 305 295 290 299 301 299 289 284 294 295 298 300 299 296 296 294 292 289 288 290 295 293 288 287 295 298 301 301 297 302 300 300 303 304 302 303 309 313 314
306 307 306 306 306 297 292 291 297 301 298 290 287 287 296 298 300 298 295 294 293 292 289 288 289 289 293 288 283 291 296 300 301 303 303 298 300 300 303 304 304 306 313 315
306 306 306 306 305 301 294 296 302 302 294 293 286 285 290 299 292 291 295 292 291 290 289 290 288 289 290 286 291 295 296 297 298 301 303 302 302 303 302 304 304 305 309 313
305 307 307 300 295 292 296 308 304 299 295 287 289 285 284 298 295 295 294 293 287 291 286 287 288 286 283 289 290 292 294 295 295 299 302 302 300 301 301 302 302 302 305 310
307 302 299 294 298 307 305 298 294 293 295 291 288 292 285 292 292 291 291 291 290 287 288 291 286 284 292 293 294 293 294 295 296 294 295 300 300 301 302 303 303 302 304 308
297 293 293 297 305 299 295 290 290 292 291 294 294 294 291 297 289 288 291 287 288 282 287 287 287 287 292 295 295 295 295 295 295 298 298 300 303 302 303 303 303 304 305 307
296 298 299 297 297 292 289 284 289 290 288 294 293 294 294 294 294 288 289 285 286 281 290 286 285 291 295 295 295 296 296 296 296 298 299 301 302 304 304 305 303 304 309 310
301 297 296 290 288 282 285 281 284 287 290 293 293 291 294 292 291 288 287 284 282 290 284 284 287 293 294 294 295 296 297 298 298 299 301 302 305 303 305 305 304 306 306 308
295 291 280 283 282 284 289 285 287 292 291 293 292 291 290 292 287 287 284 284 288 283 281 282 289 291 295 296 298 297 297 299 299 299 301 302 305 301 305 306 306 305 305 306
294 290 280 283 289 291 292 293 290 292 293 292 290 289 290 285 286 287 285 280 280 283 283 286 292 295 297 298 298 298 298 299 299 301 301 302 304 301 303 305 306 306 308 308
296 293 287 290 289 289 290 290 290 292 293 293 290 285 284 283 282 284 282 282 282 285 286 293 296 298 298 299 300 299 301 303 301 301 302 304 305 304 305 308 309 311 310 309
293 288 292 291 290 289 289 290 291 292 291 287 289 283 282 284 279 278 285 285 286 291 294 296 297 298 299 300 301 302 301 302 303 302 302 303 306 305 304 303 307 311 313 312
Wind_Speed
24 25 24 21 14 13 4 2 3 1 2 2 0 1 4 5 10 13 12 8 8 9 13 13 8 11 11 19 20 9 23 5 10 18 4 19 18 10 21 12 8 3 7 10
24 24 24 20 13 8 2 4 3 4 4 2 1 3 10 11 14 14 5 6 9 10 11 7 7 11 12 17 19 12 7 17 4 9 1 5 22 20 13 7 5 9 9 9
23 23 23 21 13 6 3 3 4 3 3 2 3 5 8 3 8 11 9 9 8 11 11 10 8 13 12 21 19 13 7 5 28 17 12 8 8 19 14 14 7 6 14 5
23 23 23 22 15 4 3 1 3 2 4 4 7 4 6 8 8 8 8 5 8 10 8 13 16 17 19 15 6 10 7 9 19 29 18 4 6 18 21 17 14 15 8 11
22 23 23 23 12 2 3 1 3 4 5 6 5 5 4 11 8 4 8 5 12 10 8 16 15 11 5 7 6 12 7 8 6 21 29 26 16 9 24 21 10 9 13 7
22 23 22 21 16 3 2 3 3 2 6 4 2 3 8 6 10 11 4 10 7 9 14 9 9 7 6 8 14 8 4 5 7 21 20 20 20 23 10 16 19 13 9 9
21 21 21 20 19 6 1 1 0 1 5 3 4 12 13 14 13 11 13 8 5 4 16 6 4 8 12 11 17 14 7 2 4 7 6 11 13 12 14 15 18 17 7 10
20 20 20 18 17 3 2 2 1 1 5 4 13 12 11 13 13 10 10 12 8 6 6 2 5 4 4 6 18 18 18 7 5 3 14 6 11 9 13 9 10 12 17 10
22 20 20 18 16 10 1 3 3 1 4 5 6 6 8 6 5 6 8 14 8 4 4 3 3 3 5 4 13 11 17 15 4 4 7 14 6 6 9 8 10 10 12 13
22 20 20 20 15 12 2 4 5 2 5 6 3 7 6 4 4 5 6 8 9 3 2 2 3 2 3 2 6 8 2 6 12 5 5 6 6 7 6 14 11 6 13 12
21 22 20 19 16 10 1 5 5 4 4 12 8 5 8 8 4 3 4 4 2 3 3 1 2 2 3 3 3 5 5 5 2 4 5 2 19 6 5 6 5 10 11 9
21 22 20 18 16 11 6 3 3 3 5 10 14 18 21 16 20 4 3 3 3 2 2 3 3 2 1 5 1 5 2 4 6 5 3 12 6 11 8 9 6 4 13 8
21 21 20 18 16 12 4 5 4 3 3 8 2 6 9 7 14 10 4 3 5 3 4 1 3 4 2 2 2 4 5 7 4 12 2 20 13 22 21 20 13 14 7 12
20 20 19 16 14 10 5 3 2 1 4 5 8 5 9 15 4 14 12 7 3 2 1 1 3 4 1 3 5 3 4 3 7 10 11 20 7 22 19 22 18 17 16 3
21 20 18 15 13 8 7 4 5 6 2 4 8 14 7 7 5 11 13 10 5 0 2 3 4 4 2 1 2 3 5 4 2 4 12 7 14 19 18 21 21 15 11 13
22 21 17 13 9 4 2 4 2 5 4 1 5 5 6 6 6 5 8 7 5 4 4 4 4 5 4 3 4 4 4 6 6 6 9 13 15 12 14 16 20 18 9 8
23 18 13 9 3 2 3 5 4 2 1 1 5 5 5 6 4 3 3 0 3 4 3 3 3 3 1 2 3 3 8 12 11 8 6 13 5 12 16 16 20 21 9 6
27 19 11 7 2 2 5 5 9 5 2 1 4 6 5 7 4 4 2 3 3 2 4 2 2 4 0 3 8 12 9 9 3 7 11 12 9 14 17 13 15 19 14 13
29 17 2 4 3 1 5 2 7 1 3 2 3 3 4 5 3 3 5 3 3 3 1 2 4 2 3 8 14 14 15 11 11 15 10 7 7 12 16 14 13 15 15 10
21 5 3 3 4 2 6 4 2 3 2 1 2 1 4 3 2 2 4 3 3 3 2 4 2 2 5 12 12 12 15 17 15 10 4 6 4 8 9 17 7 9 11 11
5 5 3 4 12 2 1 2 2 3 3 3 4 6 5 2 2 3 3 3 3 3 3 6 4 2 10 13 15 14 13 14 15 13 13 13 8 6 11 12 5 11 10 10
3 5 5 4 3 3 3 2 4 1 4 4 4 7 2 2 2 2 3 2 3 3 4 3 2 2 12 15 19 18 15 15 17 15 13 12 11 9 12 10 3 11 5 4
1 2 3 3 3 7 5 5 6 4 3 5 5 5 2 1 1 2 2 3 3 4 2 2 3 10 14 16 16 13 19 19 16 16 14 12 12 11 14 14 8 8 3 3
2 2 5 4 4 2 5 5 5 7 4 6 4 1 3 1 4 3 3 3 2 4 4 4 5 13 17 17 11 11 19 17 15 13 11 11 11 9 15 14 9 6 3 1
3 2 3 3 5 5 5 6 3 5 3 4 4 3 3 3 4 4 5 8 5 4 4 4 11 18 14 16 16 16 16 12 8 8 7 9 10 7 7 11 10 6 9 5
3 4 1 4 2 6 4 3 4 4 4 3 4 4 4 4 2 6 2 6 4 4 4 9 11 12 14 16 16 21 18 7 5 6 6 6 6 1 5 6 6 9 4 3
3 4 3 4 4 6 5 3 4 2 4 3 2 3 2 1 3 3 1 2 5 9 10 9 11 9 10 13 15 17 18 14 11 7 5 2 1 2 4 3 4 4 6 6
Wind_Direction
346 344 343 343 350 343 28 340 328 210 16 95 292 286 240 312 268 310 293 285 278 297 336 302 294 261 318 359 346 272 201 145 241 243 293 206 209 183 209 219 218 206 168 248
345 345 346 345 346 9 358 317 280 330 102 202 122 310 278 260 279 277 255 260 279 286 294 279 303 283 342 332 348 352 319 214 266 326 179 235 201 206 201 177 116 195 178 241
344 343 344 345 342 353 65 339 328 322 56 145 177 248 266 267 293 295 268 287 287 279 292 256 253 275 305 331 322 346 317 248 209 215 222 173 191 205 188 185 185 169 206 169
342 341 341 342 339 349 77 331 284 332 316 313 303 276 288 294 303 252 273 277 264 253 280 289 253 259 297 328 292 2 3 252 210 220 243 246 205 206 198 197 192 190 189 177
340 338 340 343 345 57 55 124 336 342 286 288 306 305 313 317 309 301 297 298 329 320 250 261 282 258 268 283 301 349 346 292 265 217 229 237 250 262 206 207 190 142 161 207
339 338 338 341 343 110 298 327 330 252 274 292 15 251 333 290 301 289 269 309 318 294 291 291 289 186 196 235 278 303 289 330 335 219 214 233 240 238 224 202 192 147 168 196
337 335 336 340 346 179 214 283 233 309 289 324 282 311 302 323 321 299 304 310 278 266 304 250 241 211 232 238 254 226 232 308 269 254 163 220 237 197 219 208 194 181 163 162
340 335 332 338 347 356 184 192 173 251 277 253 296 329 326 313 305 287 285 296 287 270 279 275 275 250 208 263 257 239 203 190 269 232 192 254 228 202 191 172 218 184 179 182
339 335 332 329 336 336 151 224 174 180 283 257 302 307 303 297 309 317 284 306 278 229 182 171 244 262 118 281 313 290 180 203 200 327 153 215 214 177 179 142 217 186 158 188
334 330 330 324 322 327 181 263 190 192 267 267 232 293 277 256 310 270 302 338 334 352 199 135 249 159 81 136 300 348 200 184 219 236 286 290 237 197 91 177 221 170 178 186
327 328 326 322 317 315 316 257 194 219 257 284 259 219 254 300 245 246 289 327 344 311 344 143 311 210 145 162 229 315 283 318 221 188 229 97 348 301 104 278 279 183 190 176
323 325 323 318 313 301 316 259 261 228 245 276 282 269 262 246 235 222 267 229 218 232 290 2 289 264 161 162 268 141 303 18 309 322 350 309 293 52 339 352 296 233 181 183
323 321 319 316 309 301 259 276 269 280 262 285 345 254 268 257 211 182 182 246 215 209 201 303 293 272 339 234 239 109 211 273 263 333 348 324 354 7 8 6 348 335 264 166
324 323 322 321 308 295 260 247 213 303 272 294 278 291 303 290 199 190 201 222 277 103 179 256 288 229 194 6 1 302 185 268 344 267 331 328 2 4 1 349 352 350 347 353
327 331 331 331 326 311 290 227 230 208 210 272 286 303 253 272 238 196 209 219 224 250 269 162 231 293 25 17 151 271 196 191 184 290 322 285 305 328 333 344 347 349 348 2
324 330 334 328 322 332 13 342 294 189 180 312 301 291 292 307 255 249 226 223 202 178 202 225 236 210 138 162 265 295 115 164 208 250 260 284 298 314 327 332 344 343 340 329
322 322 319 311 304 121 173 201 234 149 70 264 293 283 275 313 313 308 319 193 193 158 217 251 252 283 157 248 239 215 204 201 206 209 280 290 312 327 328 341 342 336 326 350
322 319 296 256 178 236 311 256 239 152 181 223 268 278 339 7 316 326 309 336 353 292 202 332 243 338 99 249 322 337 299 267 249 214 198 272 313 313 321 334 348 341 352 355
322 324 65 93 70 267 240 103 94 58 140 259 276 324 304 331 273 315 335 9 341 295 12 269 98 284 288 357 343 339 331 339 337 319 204 186 286 296 320 318 347 331 336 353
316 35 24 339 226 169 100 23 29 18 274 302 317 291 272 285 287 351 339 339 337 324 205 271 190 150 117 9 350 324 317 310 320 334 314 194 187 281 316 304 326 287 337 340
14 7 300 286 298 64 23 327 34 333 298 217 237 231 285 51 335 345 16 338 325 327 355 341 329 356 340 337 324 326 307 300 295 279 263 280 171 228 259 268 287 314 324 333
279 313 288 296 347 9 40 337 323 330 268 282 248 307 141 90 78 34 13 338 322 298 351 301 262 259 321 321 318 302 298 291 285 286 284 282 271 209 239 249 255 275 261 0
134 212 276 43 305 33 20 330 299 269 249 261 303 317 117 90 46 89 18 339 296 301 287 285 277 302 308 304 303 298 300 298 293 283 279 270 271 231 217 226 216 250 271 48
242 204 328 122 313 244 203 216 233 251 229 286 283 308 80 47 19 353 336 287 325 330 314 306 298 304 312 307 295 291 318 301 283 266 264 274 275 222 203 209 215 221 224 320
246 116 255 235 229 252 246 254 276 282 263 320 358 27 68 12 50 6 340 357 6 352 302 269 303 318 304 324 329 320 312 300 274 255 245 259 282 238 207 193 185 221 236 195
211 215 175 260 37 282 301 284 277 281 299 10 49 34 39 7 87 18 348 324 305 296 255 288 309 325 331 331 328 339 351 2 295 254 222 239 273 320 127 103 117 127 123 195
236 267 216 198 232 228 233 223 260 293 41 328 59 48 225 354 36 348 233 288 269 286 293 295 302 305 325 336 336 338 349 1 12 357 348 294 313 38 67 48 65 62 119 166